www.pogodaiklimat.ru

АРХИВ ПОГОДЫ в Филадельфии

Время (UTC), дата Ветер
(напр.,м/с)
 
Видим.   Явления Облачность Т
(С)
Тd
(С)
f
(%)
Тe
(С)
Тes
(С)
Комфортность

P
(гПа)

Po
(гПа)
Тmin
(С)
Tmax
(С)
R
(мм)
SD
(см)
19:54 15.07 З  16 км    5/2 1800 м
[верхняя] 
+30.6  +13.3  35  +32  +37  жарко  1016.8  1016.6         
20:54 15.07 СЗ  16 км    5/0 6000 м
[средняя верхняя] 
+30.0  +12.8  35  +31  +35  жарко  1016.5  1016.2         
21:54 15.07 З  16 км    5/0 6000 м
[средняя верхняя] 
+30.0  +13.9  37  +32  +33  жарко  1016.5  1016.2         
22:54 15.07 СЗ  16 км    8/0 6000 м
[средняя верхняя] 
+29.4  +13.9  39  +31  +32  жарко  1017.0  1016.6  +28.9  +30.6     
23:54 15.07 СЗ  16 км    8/0 8400 м
[верхняя] 
+28.3  +14.4  43  +31  +31  душно  1017.3  1016.9         
00:54 16.07 З  16 км    8/0 8400 м
[верхняя] 
+27.8  +14.4  44  +30  +30  жарко  1017.7  1017.3         
01:54 16.07 З  16 км    8/0 7500 м
[верхняя] 
+26.7  +15.0  49  +29  +29  жарко  1017.9  1017.6         
02:54 16.07 ЮЗ  16 км    8/0 7500 м
[верхняя] 
+25.6  +16.7  58  +29  +29  душно  1018.3  1017.9         
03:54 16.07 ЮЗ  16 км    5/0 7500 м
[верхняя] 
+25.0  +17.2  62  +29  +29  душно  1018.3  1017.9         
04:54 16.07 Ю  16 км    2/0 7500 м
[верхняя] 
+22.8  +18.3  76  +28  +28  душно  1018.3  1017.9  +22.8  +29.4     
05:54 16.07   16 км    2/0 7500 м
[верхняя] 
+22.8  +18.9  79  +29  +29  очень
душно 
1018.1  1017.9         
06:54 16.07 Ю  16 км    8/0 7500 м
[верхняя] 
+22.2  +18.3  79  +27  +27  душно  1018.0  1017.6         
07:54 16.07   16 км    8/0 7500 м
[верхняя] 
+21.7  +18.9  84  +27  +27  душно  1018.1  1017.9         
08:54 16.07 ЮЗ  16 км    8/0 7500 м
[верхняя] 
+22.2  +18.9  82  +28  +28  душно  1018.4  1018.3         
09:54 16.07   16 км    8/0 7500 м
[верхняя] 
+22.8  +19.4  81  +29  +29  очень
душно 
1019.0  1018.9         
10:54 16.07   16 км    8/0 7500 м
[верхняя] 
+23.9  +20.0  79  +29  +31  душно  1019.2  1018.9  +21.1  +23.9     
11:54 16.07 Ю  16 км    5/0 7500 м
[верхняя] 
+26.1  +19.4  67  +32  +35  очень
душно 
1019.4  1019.3         
12:54 16.07 Ю  16 км    2/0 7500 м
[верхняя] 
+27.8  +18.3  56  +33  +39  очень
душно 
1019.4  1018.9         
13:54 16.07 З  16 км    5/2 1290 м
[верхняя] 
+29.4  +18.9  53  +35  +41  очень
душно 
1019.2  1018.9         
14:54 16.07 ЮЗ  16 км    5/2 1380 м
[верхняя] 
+30.0  +18.3  50  +35  +39  очень
душно 
1018.8  1018.6         
15:54 16.07 З  6
{9} 
16 км    5/2 1650 м
[верхняя] 
+31.7  +17.2  42  +35  +40  очень
душно 
1018.4  1018.3         
16:54 16.07 З  4
{9} 
16 км    5/2 1650 м
[верхняя] 
+32.2  +19.4  47  +38  +47  очень
душно 
1017.8  1017.6  +24.4  +32.2     
17:54 16.07 нст  16 км    5/2 1800 м
[верхняя] 
+32.2  +18.9  45  +37  +52  опасность
солнечного
удара 
1017.3  1016.9         
18:54 16.07 ЮЗ  16 км    5/2 1800 м
[верхняя] 
+32.8  +18.9  44  +38  +45  очень
душно 
1016.7  1016.6         
19:54 16.07 ЮЗ  16 км    8/2 1800 м
[верхняя] 
+33.3  +18.9  43  +38  +43  очень
душно 
1016.4  1016.2         
20:54 16.07 ЮЗ  16 км    8/0 4800 м
[средняя верхняя] 
+32.2  +19.4  47  +38  +41  очень
душно 
1016.0  1015.6         
21:54 16.07 ЮЗ  16 км    8/2 1500 м
[средняя верхняя] 
+32.2  +19.4  47  +38  +39  очень
душно 
1016.4  1016.2         
22:54 16.07 Ю  16 км    8/0 6000 м
[средняя верхняя] 
+30.6  +21.1  57  +38  +39  очень
душно 
1016.3  1016.2  +30.6  +33.9     
23:54 16.07 Ю  16 км    8/2 1650 м
[средняя верхняя] 
+28.9  +21.7  65  +37  +37  очень
душно 
1016.6  1016.2         
00:18 17.07 Ю  16 км  гроза  8/2 1500 м
[верхняя] 
+28.3  +21.7  67  +36  +36  очень
душно 
  1016.6         
00:46 17.07 Ю  10 км  гроза с дождем  10/8 810 м
[средняя] 
+28.3  +20.6  63  +35  +35  очень
душно 
  1017.3         
00:51 17.07 СВ  4
{9} 
16 км  гроза с дождем  8/8 810 м
[средняя] 
+26.0  +22.0  79  +34  +34  очень
душно 
  1016.9         
00:54 17.07 С  16 км  гроза с дождем  8/8 810 м
[средняя] 
+26.1  +21.7  77  +34  +34  очень
душно 
1017.3  1016.9         
01:01 17.07 В  16 км    10/5 1350 м
[верхняя] 
+26.1  +21.7  77  +34  +34  очень
душно 
  1017.3         
01:54 17.07   16 км    10/0 3000 м
[средняя верхняя] 
+26.7  +22.2  76  +35  +35  очень
душно 
1017.3  1016.9      1.3   
02:54 17.07 Ю  16 км    10/0 2700 м
[средняя] 
+27.2  +22.8  77  +36  +36  очень
душно 
1016.8  1016.6         
03:54 17.07 Ю  16 км    10/0 3000 м
[средняя верхняя] 
+26.7  +22.8  79  +35  +35  очень
душно 
1016.4  1016.2         
04:54 17.07 Ю  16 км    10/0 4500 м
[средняя] 
+26.7  +23.3  82  +36  +36  очень
душно 
1015.9  1015.6  +25.6  +30.6  1.3   
05:54 17.07 Ю  16 км    10/0 4200 м
[средняя] 
+26.7  +23.3  82  +36  +36  очень
душно 
1015.3  1014.9         
06:54 17.07 Ю  16 км    10/0 3900 м
[средняя верхняя] 
+26.7  +23.9  85  +37  +37  очень
душно 
1014.8  1014.5         
07:54 17.07 Ю  16 км    10/0 3600 м
[средняя верхняя] 
+26.7  +23.3  82  +36  +36  очень
душно 
1015.2  1014.9         
08:54 17.07 Ю  16 км    8/0 3600 м
[средняя верхняя] 
+26.7  +23.3  82  +36  +36  очень
душно 
1015.0  1014.9         
09:54 17.07 Ю  16 км    8/0 6000 м
[средняя верхняя] 
+26.7  +22.8  79  +35  +35  очень
душно 
1015.1  1014.9         
10:54 17.07 Ю  16 км    8/0 6000 м
[средняя верхняя] 
+27.2  +22.8  77  +36  +36  очень
душно 
1015.2  1014.9  +26.1  +27.2     
11:54 17.07 ЮЗ  16 км    8/0 6000 м
[средняя верхняя] 
+28.3  +22.8  72  +38  +39  очень
душно 
1015.5  1015.2         
12:54 17.07 ЮЗ  16 км    5/0 6000 м
[средняя верхняя] 
+29.4  +23.3  70  +40  +43  очень
душно 
1015.2  1014.9         
13:54 17.07 З  16 км    5/2 960 м
[средняя верхняя] 
+31.1  +23.3  63  +42  +46  опасность
перегрева 
1014.7  1014.5         
14:54 17.07 ЮЗ  16 км    8/2 1110 м
[верхняя] 
+32.8  +22.8  56  +43  +46  опасность
перегрева 
1014.5  1014.2         

 

Местоположение метеостанции Philadelphia International Airport: широта 39.8733 долгота -75.2268 высота над уровнем моря 2 м.

В архиве по умолчанию представлена погода в Филадельфии за последние 1-2 суток. Обновление информации о фактической погоде в базе происходит ежечасно! Архивные данные за месяц целиком и за предыдущие месяцы Вы можете получить, выбрав интересующий диапазон дат из раскрывающегося списка и нажав кнопку "Ввод!".

Внимание! Архив погоды МЕТАР в базе сайта в настоящее время начинается c 1 января 2011 г. Нет смысла пытаться выбрать более раннюю дату.

Внимание! Время в таблицах - всемирное. Для получения местного времени необходимо прибавить поправку, которая в Филадельфии равна -5 ч.

Ветер - указаны скорость ветра в м/с и направление, откуда дует ветер: С - северный, СВ - северо-восточный, В - восточный, ЮВ - юго-восточный, Ю - южный, ЮЗ - юго-западный, З - западный, СЗ - северо-западный.
Видимость - горизонтальная дальность видимости в метрах или километрах. При видимости от 1 до 10 км при отсутствии осадков обычно наблюдается дымка, при ухудшении видимости до 1 км и менее - туман. В сухую погоду видимость может ухудшаться дымом, пылью или мглою.
Атмосферные явления - указаны явления, наблюдавшиеся в указанный момент времени.
Облачность - указаны через наклонную черту верхняя и нижняя облачность в баллах и высота нижней границы облаков в метрах. Внимание: облачность, как и прочие метеорологические величины в США измеряются автоматическими метеостанциями. Указанные значения в баллах носят условный характер и показывают процент времени, в течение которого, в среднем, лазерный луч высотомера отражался от облаков обратно.
T - Температура воздуха - температура, измеренная на высоте 2 м над землей.
Td - Температура точки росы - температура, при понижении до которой содержащийся в воздухе водяной пар достигнет насыщения.
f - Относительная влажность воздуха - влажноcть воздуха, измеренная на высоте 2 м над землей.
Te - Эффективная температура - температура, которую ощущает одетый по сезону человек в тени. Характеристика душности погоды. При расчете учитывается влияние влажности воздуха и скорости ветра на теплоощущения человека.
Tes - Эффективная температура на солнце - температура, которую ощущает человек, с поправкой на солнечный нагрев. Характеристика знойности погоды. Зависит от высоты солнца над горизонтом, облачности и скорости ветра. Ночью, в пасмурную погоду, а также при ветре 12 м/с и более поправка равна нулю.
P - Атмосферное давление - приведенное к уровню моря атмосферное давление.
Po - Атмосферное давление - измеренное на уровне метеостанции атмосферное давление.
Tmin - Минимальная температура - минимум температуры воздуха на высоте 2 м над землей.
Tmax - Максимальная температура - максимум температуры воздуха на высоте 2 м над землей.
R - Количество осадков - Количество выпавших осадков за 3 или 6 часов, мм.
SD - Снежный покров - Высота снежного покрова, см.